WLF88S FEFF-FTTD

Flight info

Callsign WLF88S
Flight time 0h 52m
Altitude 26000
Route MPK DCT BN DCT ERPOT DCT RULDO DCT MN
Aircraft B722/M-SDFGHRWY/C

Departure

Time 2026-05-06 19:55
Airport Bangui M'Poko International Airport (FEFF)

Arrival

Time 2026-05-06 20:47
Airport Moundou Airport (FTTD)
Time Latitude Longitude Altitude Speed Heading
2026-05-06 19:23 4.40362 18.52222 1208 ft 0 kts 247°
2026-05-06 19:47 4.40361 18.52222 1208 ft 1 kts 247°
2026-05-06 19:47 4.40350 18.52194 1208 ft 7 kts 256°
2026-05-06 19:48 4.40370 18.52166 1207 ft 9 kts 321°
2026-05-06 19:48 4.40448 18.52120 1208 ft 16 kts 346°
2026-05-06 19:48 4.40495 18.52050 1207 ft 15 kts 258°
2026-05-06 19:48 4.40471 18.51938 1204 ft 18 kts 254°
2026-05-06 19:49 4.40460 18.51905 1204 ft 0 kts 255°
2026-05-06 19:50 4.40457 18.51891 1204 ft 7 kts 255°
2026-05-06 19:50 4.40415 18.51816 1206 ft 19 kts 201°
2026-05-06 19:50 4.40251 18.51852 1207 ft 31 kts 164°
2026-05-06 19:50 4.40007 18.51915 1205 ft 41 kts 165°
2026-05-06 19:51 4.39724 18.51988 1206 ft 42 kts 165°
2026-05-06 19:51 4.39440 18.52061 1201 ft 42 kts 165°
2026-05-06 19:51 4.39147 18.52137 1191 ft 44 kts 165°
2026-05-06 19:51 4.38896 18.52199 1188 ft 19 kts 177°
2026-05-06 19:52 4.38819 18.52192 1185 ft 7 kts 113°
2026-05-06 19:52 4.38831 18.52212 1186 ft 2 kts 24°
2026-05-06 19:52 4.38849 18.52212 1186 ft 2 kts 349°
2026-05-06 19:53 4.38852 18.52211 1186 ft 2 kts 351°
2026-05-06 19:53 4.38864 18.52209 1187 ft 0 kts 345°
2026-05-06 19:53 4.38918 18.52195 1188 ft 29 kts 345°
2026-05-06 19:54 4.39291 18.52100 1195 ft 79 kts 346°
2026-05-06 19:54 4.39954 18.51929 1205 ft 118 kts 346°
2026-05-06 19:54 4.40888 18.51689 1252 ft 156 kts 346°
2026-05-06 19:54 4.41983 18.51410 1691 ft 166 kts 346°
2026-05-06 19:55 4.43131 18.51148 2235 ft 172 kts 348°
2026-05-06 19:55 4.44315 18.50895 2803 ft 176 kts 345°
2026-05-06 19:55 4.45510 18.50590 3380 ft 178 kts 346°
2026-05-06 19:55 4.46700 18.50290 3955 ft 179 kts 345°
2026-05-06 19:56 4.47941 18.49966 4396 ft 190 kts 346°
2026-05-06 19:56 4.49259 18.49617 4813 ft 201 kts 346°
2026-05-06 19:56 4.50621 18.49159 5199 ft 212 kts 332°
2026-05-06 19:56 4.51876 18.48335 5618 ft 221 kts 330°
2026-05-06 19:57 4.53287 18.47601 6029 ft 239 kts 338°
2026-05-06 19:57 4.54914 18.46915 6441 ft 266 kts 340°
2026-05-06 19:57 4.56665 18.46154 6853 ft 284 kts 339°
2026-05-06 19:57 4.58508 18.45309 7478 ft 292 kts 338°
2026-05-06 19:58 4.60339 18.44469 8542 ft 288 kts 340°
2026-05-06 19:58 4.62182 18.43644 9326 ft 293 kts 341°
2026-05-06 19:58 4.64055 18.42806 10163 ft 295 kts 341°
2026-05-06 19:58 4.65939 18.41957 10909 ft 300 kts 341°
2026-05-06 19:59 4.67855 18.41092 11655 ft 304 kts 341°
2026-05-06 19:59 4.69798 18.40215 12403 ft 308 kts 340°
2026-05-06 19:59 4.71768 18.39327 13166 ft 312 kts 340°
2026-05-06 19:59 4.73757 18.38431 13907 ft 316 kts 340°
2026-05-06 20:00 4.75776 18.37521 14572 ft 320 kts 340°
2026-05-06 20:00 4.77821 18.36598 15244 ft 324 kts 340°
2026-05-06 20:00 4.79889 18.35666 15901 ft 328 kts 340°
2026-05-06 20:00 4.81960 18.34732 16527 ft 332 kts 339°
2026-05-06 20:01 4.84080 18.33776 17162 ft 337 kts 339°
2026-05-06 20:01 4.86228 18.32807 17792 ft 341 kts 339°
2026-05-06 20:01 4.88403 18.31826 18379 ft 345 kts 339°
2026-05-06 20:01 4.90599 18.30835 18922 ft 348 kts 339°
2026-05-06 20:02 4.92817 18.29835 19478 ft 351 kts 339°
2026-05-06 20:02 4.95054 18.28826 20026 ft 354 kts 339°
2026-05-06 20:02 4.97304 18.27810 20570 ft 356 kts 338°
2026-05-06 20:02 4.99575 18.26786 21096 ft 359 kts 338°
2026-05-06 20:03 5.01867 18.25751 21624 ft 362 kts 338°
2026-05-06 20:03 5.04177 18.24709 22144 ft 365 kts 338°
2026-05-06 20:03 5.06505 18.23658 22660 ft 368 kts 338°
2026-05-06 20:03 5.08846 18.22601 23200 ft 370 kts 339°
2026-05-06 20:04 5.11204 18.21537 23666 ft 373 kts 338°
2026-05-06 20:04 5.13577 18.20466 24073 ft 375 kts 338°
2026-05-06 20:04 5.15962 18.19390 24504 ft 377 kts 338°
2026-05-06 20:04 5.18365 18.18304 24921 ft 379 kts 338°
2026-05-06 20:05 5.20775 18.17216 25328 ft 381 kts 338°
2026-05-06 20:05 5.23198 18.16123 25735 ft 383 kts 338°
2026-05-06 20:05 5.25657 18.15013 25883 ft 394 kts 337°
2026-05-06 20:05 5.28202 18.13864 25896 ft 408 kts 337°
2026-05-06 20:06 5.30836 18.12675 25902 ft 422 kts 337°
2026-05-06 20:06 5.33561 18.11443 25906 ft 436 kts 337°
2026-05-06 20:06 5.36359 18.10179 25902 ft 448 kts 337°
2026-05-06 20:06 5.39251 18.08874 25909 ft 460 kts 337°
2026-05-06 20:07 5.42206 18.07539 25901 ft 472 kts 337°
2026-05-06 20:07 5.45244 18.06166 25907 ft 484 kts 336°
2026-05-06 20:07 5.48342 18.04766 25901 ft 495 kts 336°
2026-05-06 20:07 5.51517 18.03332 25906 ft 505 kts 336°
2026-05-06 20:08 5.54748 18.01872 25905 ft 515 kts 336°
2026-05-06 20:08 5.58044 18.00382 25907 ft 524 kts 336°
2026-05-06 20:08 5.61395 17.98867 25904 ft 528 kts 336°
2026-05-06 20:08 5.64744 17.97351 25906 ft 528 kts 336°
2026-05-06 20:09 5.68096 17.95834 25904 ft 528 kts 336°
2026-05-06 20:09 5.71439 17.94324 25904 ft 528 kts 336°
2026-05-06 20:09 5.74793 17.92807 25904 ft 528 kts 336°
2026-05-06 20:09 5.78144 17.91289 25904 ft 528 kts 336°
2026-05-06 20:10 5.81466 17.89785 25902 ft 515 kts 336°
2026-05-06 20:10 5.84722 17.88311 25894 ft 514 kts 336°
2026-05-06 20:10 5.88002 17.86829 25895 ft 518 kts 336°
2026-05-06 20:10 5.91233 17.85366 25896 ft 518 kts 336°
2026-05-06 20:11 5.94524 17.83875 25889 ft 518 kts 336°
2026-05-06 20:11 5.97812 17.82384 25890 ft 518 kts 336°
2026-05-06 20:11 6.01102 17.80897 25889 ft 518 kts 336°
2026-05-06 20:11 6.04380 17.79412 25889 ft 518 kts 336°
2026-05-06 20:12 6.07664 17.77923 25893 ft 518 kts 336°
2026-05-06 20:12 6.10957 17.76431 25887 ft 518 kts 336°
2026-05-06 20:12 6.14241 17.74945 25887 ft 518 kts 336°
2026-05-06 20:12 6.17525 17.73456 25887 ft 516 kts 336°
2026-05-06 20:13 6.20791 17.71975 25893 ft 515 kts 336°
2026-05-06 20:13 6.24064 17.70491 25890 ft 515 kts 336°
2026-05-06 20:13 6.27326 17.69013 25890 ft 515 kts 336°
2026-05-06 20:13 6.30596 17.67531 25889 ft 515 kts 336°
2026-05-06 20:14 6.33855 17.66051 25886 ft 515 kts 336°
2026-05-06 20:14 6.37122 17.64570 25886 ft 515 kts 336°
2026-05-06 20:14 6.40390 17.63089 25880 ft 515 kts 336°
2026-05-06 20:14 6.43656 17.61606 25881 ft 515 kts 336°
2026-05-06 20:15 6.46920 17.60124 25878 ft 515 kts 336°
2026-05-06 20:15 6.50183 17.58645 25878 ft 515 kts 336°
2026-05-06 20:15 6.53450 17.57161 25878 ft 515 kts 336°
2026-05-06 20:15 6.56716 17.55678 25879 ft 514 kts 336°
2026-05-06 20:16 6.59974 17.54200 25881 ft 514 kts 336°
2026-05-06 20:16 6.63226 17.52723 25881 ft 514 kts 336°
2026-05-06 20:16 6.66494 17.51238 25880 ft 514 kts 336°
2026-05-06 20:16 6.69716 17.49781 25878 ft 514 kts 336°
2026-05-06 20:17 6.72987 17.48336 25877 ft 514 kts 337°
2026-05-06 20:17 6.76264 17.46899 25877 ft 514 kts 337°
2026-05-06 20:17 6.79531 17.45439 25876 ft 514 kts 336°
2026-05-06 20:17 6.82802 17.43967 25873 ft 514 kts 336°
2026-05-06 20:18 6.86068 17.42517 25872 ft 514 kts 337°
2026-05-06 20:18 6.89344 17.41073 25872 ft 514 kts 337°
2026-05-06 20:18 6.92617 17.39613 25875 ft 514 kts 337°
2026-05-06 20:18 6.95878 17.38150 25865 ft 514 kts 337°
2026-05-06 20:19 6.99156 17.36692 25694 ft 514 kts 337°
2026-05-06 20:19 7.02432 17.35242 25513 ft 513 kts 337°
2026-05-06 20:19 7.05689 17.33790 25324 ft 512 kts 337°
2026-05-06 20:19 7.08944 17.32333 25157 ft 511 kts 337°
2026-05-06 20:20 7.12187 17.30889 24975 ft 510 kts 337°
2026-05-06 20:20 7.15437 17.29446 24795 ft 509 kts 337°
2026-05-06 20:20 7.18675 17.28001 24616 ft 509 kts 337°
2026-05-06 20:20 7.21912 17.26554 24438 ft 508 kts 337°
2026-05-06 20:21 7.25136 17.25118 24266 ft 507 kts 337°
2026-05-06 20:21 7.28363 17.23682 24086 ft 506 kts 337°
2026-05-06 20:21 7.31573 17.22248 23907 ft 505 kts 337°
2026-05-06 20:21 7.34727 17.20841 23740 ft 504 kts 337°
2026-05-06 20:22 7.37989 17.19386 23564 ft 503 kts 338°
2026-05-06 20:22 7.41189 17.17958 23381 ft 503 kts 338°
2026-05-06 20:22 7.44381 17.16534 23171 ft 501 kts 338°
2026-05-06 20:22 7.47565 17.15113 22973 ft 500 kts 338°
2026-05-06 20:23 7.50741 17.13693 22722 ft 498 kts 338°
2026-05-06 20:23 7.53907 17.12281 22466 ft 496 kts 338°
2026-05-06 20:23 7.57057 17.10875 22212 ft 495 kts 338°
2026-05-06 20:23 7.60200 17.09469 21961 ft 493 kts 338°
2026-05-06 20:24 7.63330 17.08071 21711 ft 491 kts 338°
2026-05-06 20:24 7.66457 17.06676 21466 ft 490 kts 338°
2026-05-06 20:24 7.69562 17.05287 21223 ft 488 kts 338°
2026-05-06 20:24 7.72616 17.03921 20987 ft 487 kts 338°
2026-05-06 20:25 7.75712 17.02539 20749 ft 486 kts 338°
2026-05-06 20:25 7.78804 17.01158 20511 ft 484 kts 338°
2026-05-06 20:25 7.81876 16.99781 20275 ft 483 kts 338°
2026-05-06 20:25 7.84940 16.98411 20040 ft 481 kts 338°
2026-05-06 20:26 7.87999 16.97046 19805 ft 480 kts 338°
2026-05-06 20:26 7.91045 16.95682 19582 ft 479 kts 338°
2026-05-06 20:26 7.94087 16.94317 19346 ft 477 kts 338°
2026-05-06 20:26 7.96131 16.93396 19192 ft 476 kts 337°
2026-05-06 20:27 7.99835 16.91046 18871 ft 476 kts 322°
2026-05-06 20:27 8.01469 16.89502 18714 ft 476 kts 314°
2026-05-06 20:27 8.03602 16.86953 18488 ft 475 kts 309°
2026-05-06 20:27 8.05516 16.84298 18272 ft 474 kts 305°
2026-05-06 20:28 8.07382 16.81517 18038 ft 473 kts 306°
2026-05-06 20:28 8.09243 16.78837 17785 ft 471 kts 306°
2026-05-06 20:28 8.11112 16.76135 17529 ft 469 kts 306°
2026-05-06 20:28 8.12979 16.73450 17277 ft 466 kts 306°
2026-05-06 20:29 8.14859 16.70783 17024 ft 465 kts 307°
2026-05-06 20:29 8.16815 16.68188 16751 ft 465 kts 310°
2026-05-06 20:29 8.18805 16.65716 16389 ft 441 kts 311°
2026-05-06 20:29 8.20716 16.63405 16026 ft 417 kts 312°
2026-05-06 20:30 8.22529 16.61215 15654 ft 398 kts 312°
2026-05-06 20:30 8.25952 16.57014 14926 ft 382 kts 311°
2026-05-06 20:30 8.27621 16.54943 14581 ft 380 kts 311°
2026-05-06 20:31 8.29287 16.52869 14227 ft 379 kts 311°
2026-05-06 20:31 8.30936 16.50814 13889 ft 376 kts 311°
2026-05-06 20:31 8.32584 16.48759 13541 ft 375 kts 312°
2026-05-06 20:31 8.34221 16.46721 13162 ft 373 kts 312°
2026-05-06 20:32 8.36377 16.44036 12668 ft 371 kts 312°
2026-05-06 20:32 8.37470 16.42675 12416 ft 368 kts 312°
2026-05-06 20:32 8.39080 16.40670 12050 ft 367 kts 312°
2026-05-06 20:32 8.40685 16.38673 11686 ft 366 kts 312°
2026-05-06 20:33 8.42286 16.36682 11333 ft 364 kts 312°
2026-05-06 20:33 8.43861 16.34720 10983 ft 363 kts 312°
2026-05-06 20:33 8.45464 16.32723 10602 ft 361 kts 312°
2026-05-06 20:33 8.47021 16.30783 10216 ft 359 kts 312°
2026-05-06 20:34 8.48589 16.28828 9818 ft 357 kts 312°
2026-05-06 20:34 8.50153 16.26881 9409 ft 356 kts 311°
2026-05-06 20:34 8.51728 16.24921 8992 ft 353 kts 311°
2026-05-06 20:34 8.53254 16.23030 8581 ft 350 kts 312°
2026-05-06 20:35 8.55046 16.21425 8160 ft 343 kts 333°
2026-05-06 20:35 8.57298 16.20770 7758 ft 337 kts 360°
2026-05-06 20:35 8.59565 16.21215 7363 ft 332 kts 25°
2026-05-06 20:35 8.61582 16.22341 6999 ft 331 kts 34°
2026-05-06 20:36 8.63469 16.23675 6621 ft 331 kts 37°
2026-05-06 20:36 8.65346 16.25026 6241 ft 332 kts 37°
2026-05-06 20:36 8.67229 16.26387 5825 ft 332 kts 37°
2026-05-06 20:36 8.69116 16.27728 5419 ft 332 kts 37°
2026-05-06 20:37 8.71003 16.29074 5026 ft 331 kts 37°
2026-05-06 20:37 8.72868 16.30435 4632 ft 331 kts 38°
2026-05-06 20:37 8.74725 16.31795 4216 ft 327 kts 38°
2026-05-06 20:37 8.76508 16.33100 3899 ft 301 kts 38°
2026-05-06 20:38 8.78158 16.34283 3884 ft 284 kts 38°
2026-05-06 20:38 8.79744 16.35419 3893 ft 274 kts 37°
2026-05-06 20:38 8.81255 16.36505 3889 ft 259 kts 36°
2026-05-06 20:38 8.82871 16.37214 3876 ft 253 kts
2026-05-06 20:39 8.84568 16.36871 3892 ft 253 kts 327°
2026-05-06 20:39 8.85847 16.35664 3917 ft 251 kts 306°
2026-05-06 20:39 8.86856 16.34283 3908 ft 237 kts 304°
2026-05-06 20:39 8.87685 16.32901 3839 ft 225 kts 283°
2026-05-06 20:40 8.87792 16.31386 3885 ft 213 kts 261°
2026-05-06 20:40 8.87647 16.29892 3888 ft 213 kts 260°
2026-05-06 20:40 8.87261 16.28488 3905 ft 203 kts 236°
2026-05-06 20:40 8.86479 16.27286 3912 ft 207 kts 231°
2026-05-06 20:41 8.85630 16.26110 3907 ft 200 kts 230°
2026-05-06 20:41 8.84886 16.25028 4046 ft 182 kts 233°
2026-05-06 20:41 8.84242 16.23857 3905 ft 200 kts 240°
2026-05-06 20:41 8.83631 16.22589 4001 ft 197 kts 241°
2026-05-06 20:42 8.82950 16.21449 3990 ft 191 kts 224°
2026-05-06 20:42 8.81981 16.20545 3951 ft 185 kts 215°
2026-05-06 20:42 8.80968 16.19799 3927 ft 180 kts 212°
2026-05-06 20:42 8.79936 16.19062 3750 ft 184 kts 211°
2026-05-06 20:43 8.78874 16.18326 3656 ft 185 kts 211°
2026-05-06 20:43 8.77803 16.17574 3533 ft 189 kts 210°
2026-05-06 20:43 8.76683 16.16876 3397 ft 189 kts 207°
2026-05-06 20:43 8.75588 16.16150 3285 ft 189 kts 212°
2026-05-06 20:44 8.74542 16.15336 3100 ft 189 kts 214°
2026-05-06 20:44 8.73506 16.14557 3053 ft 184 kts 211°
2026-05-06 20:44 8.72451 16.13820 2916 ft 182 kts 208°
2026-05-06 20:44 8.71321 16.13288 2636 ft 178 kts 200°
2026-05-06 20:45 8.70299 16.12634 2633 ft 170 kts 212°
2026-05-06 20:45 8.69363 16.11932 2453 ft 163 kts 212°
2026-05-06 20:45 8.68498 16.11301 2417 ft 145 kts 210°
2026-05-06 20:45 8.67675 16.10739 2291 ft 141 kts 210°
2026-05-06 20:46 8.66865 16.10178 2110 ft 142 kts 211°
2026-05-06 20:46 8.66028 16.09644 1969 ft 142 kts 211°
2026-05-06 20:46 8.65234 16.09070 1794 ft 140 kts 212°
2026-05-06 20:46 8.64427 16.08523 1561 ft 138 kts 212°
2026-05-06 20:47 8.63658 16.07982 1422 ft 126 kts 212°
2026-05-06 20:47 8.63059 16.07571 1409 ft 71 kts 214°
2026-05-06 20:47 8.62728 16.07343 1408 ft 52 kts 215°
2026-05-06 20:47 8.62438 16.07141 1402 ft 49 kts 214°
2026-05-06 20:48 8.62169 16.06953 1387 ft 40 kts 215°
2026-05-06 20:48 8.62021 16.06864 1387 ft 13 kts 170°
2026-05-06 20:48 8.61959 16.06922 1385 ft 8 kts 123°
2026-05-06 20:48 8.61956 16.06925 1388 ft 0 kts 123°
2026-05-06 20:49 8.61945 16.06943 1384 ft 8 kts 124°
2026-05-06 20:50 8.61924 16.07017 1388 ft 14 kts 73°
2026-05-06 20:50 8.61946 16.07104 1389 ft 12 kts 110°
2026-05-06 20:50 8.61938 16.07118 1390 ft 0 kts 125°